{"data":{"norad_id":62304,"epoch":"2026-09-21T12:15:46.320192Z","epoch_age_seconds":90257,"freshness":"FRESH","line1":"1 62304U 24239D   26264.51095278  .00022189  00000+0  66601-3 0  9995","line2":"2 62304  53.1615 348.8329 0001193  79.8927 280.2211 15.34395067 99581","mean_motion":15.34395067,"eccentricity":0.0001193,"inclination_deg":53.1615,"raan_deg":348.8329,"arg_perigee_deg":79.8927,"mean_anomaly_deg":280.2211,"bstar":0.00066601,"rev_number":9958,"period_min":93.848059796975,"perigee_km":461.90178817214,"apogee_km":463.5340161518,"semimajor_km":6840.854902162,"source":"CELESTRAK","updated_at":"2026-09-22T09:00:49.571224Z"}}